Showing default

INTELSAT 804, 25110

Orbit data source: Space-Track

INTELSAT 804, 25110 is a payload satellite owned by INTELSAT (US) in GEO that was launched on Sun, 21 Dec 1997 UTC via an ARIANE 42L launch vehicle from the French Guiana (FRGUI). Payloads include a variety of satellites, spacecraft, and rockets equipped with specific instruments for various scientific and technological missions. These include communications satellites like Starlink; space stations such as the ISS; scientific satellites like the Hubble; Earth observation satellites from companies like Planet Labs, Umbra, and HawkEye 360; GPS; miniature CubeSats for education and research; and military/defense satellites.

Loading next visibility...
INTELSAT 804 details
Identifier
25110, 1997-083A
Orbit
GEO
Last TLE update22 hours ago
Origin
Flag of USINTELSAT (US / ITSO)
ManufacturerLMT/EW
MissionNon-operational Civil Communications
Bus & MotorAS7000, 2X LEROS 1B
Mass3,455 kg wet, 1,601 kg dry
Launch date (UTC)
1997-12-21 (27 years ago)
Launch vehicle
ARIANE 42L
Launch site
French Guiana (FRGUI)
Object type
Payload
Rocket body
Debris
Shape & HBRHex Poly + 2 Pan, 21.58 m
Radar Cross Section42.091 m², Large (>1 m²)

Expand to show TLE details & history

TLE from 22 hours ago
0 INTELSAT 804
1 25110U 97083A   25046.55375655 -.00000060  00000-0  00000+0 0  9990
2 25110  12.6524  21.1305 0005940 353.0824 221.2300  1.00151826 99536
Epoch: 2025-02-15T13:17Z
Definitive object data (Epoch: 2025-02-15T13:17:24.565Z)
Latitude-7.08105°
Longitude-110.38461°
Altitude35,839.8 km
Speed3.072 km/s
True Right ascension15h 39m 04s
True Declination-7° 04' 26"
Sunlit
Object was in daylight at TLE epoch
Visualization TLE readout
Latitude-1.17439°
Longitude-138.74199°
Altitude35,844.414 km
Speed3.072 km/s
Apparent Right ascension13h 42m 57s
Apparent Declination-7° 31' 48"
Sunlit
Object is in daylight
Visualization observer readout
Local Sidereal Time14:06:05
Azimuth187.758° SSW
Elevation42.254°
Doppler factor1
Orbital elements
Apogee altitude35,846.318 km
Perigee altitude35,796.185 km
Semi-major axis42,199.389 km
Eccentricity0.000594
Inclination12.6524°
RAAN21.1305°
Arg. of periapsis353.0824°
True anomaly221.18516°
Mean anomaly221.23°
Eccentric anomaly221.20758°
Mean motion0.25037 °/min
BSTARUnknown
Orbital period1437.87 mins
Loading historical data...
25110 neighbors
Authenticating...
Loading maneuver chart data...
Loading historical data...
Loading historical data...
Loading historical data...
Loading historical data...
Loading historical data...
Loading historical data...
Loading historical data...
Other satellites on launch #83 in the year 1997 (1997-12-21 UTC)

INTELSAT 804 Visibility forecast

Observer location: undefined°, undefined

Span
Click to sort rows by Start time (UTC) header in descending order
Start Az.
Max El. time (UTC)
Max El. Az.
Max El.
End time (UTC)
End Az.
1440 mins2025-02-16 11:19:45.056Z187.755° SSW2025-02-17 04:59:45.056Z191.004° SSW40.217°2025-02-17 11:19:45.056Z188.411° SSW
|